Regional Weather Roundup
Issued by NWS

Home | Current Version | Previous Version | Graphics & Text | Print | Product List | Glossary On
Versions: 1 2 3 4 5 6 7 8 9 10 11 12 13 14 15 16 17 18 19 20 21 22 23 24 25 26 27 28 29 30 31 32 33 34 35 36 37 38 39 40 41 42 43 44 45 46 47 48 49 50
000
ASUS44 KMEG 220410
RWRTN
TENNESSEE HOURLY STATE WEATHER ROUNDUP
NATIONAL WEATHER SERVICE MEMPHIS TN
1000 PM CST TUE FEB 21 2017

TNZ002-004-019-021-049-052-054-088>092-220500-
WEST TENNESSEE

CITY           SKY/WX    TMP DP  RH WIND       PRES   REMARKS
MEMPHIS INTL   LGT RAIN  61  60  97 E6        29.89S
NWS MEMPHIS      N/A     60 N/A N/A MISG        N/A
JACKSON        CLOUDY    59  59 100 NE5       29.91S
UNION CITY     CLOUDY   N/A N/A N/A CALM      29.91S
PARIS          CLOUDY    57  55  94 SE5       29.93R
HUNTINGDON     CLOUDY    59  59 100 S6        29.93R
$$

TNZ008-025-027-028-033-062-065-066-220500-
NORTH MIDDLE TENNESSEE

CITY           SKY/WX    TMP DP  RH WIND       PRES   REMARKS
NASHVILLE      MOCLDY    58  56  93 CALM      29.94F
PORTLAND       CLOUDY    57  55  94 SE6       29.94F
CLARKSVILLE    CLOUDY    58  55  90 SE3       29.93F
SMYRNA         PTCLDY    57  56  96 E3        29.94F
COOKEVILLE     CLOUDY    57  54  88 CALM      29.94F
GALLATIN       CLOUDY    57  55  94 E5        29.96F
CROSSVILLE     CLOUDY    53  51  93 CALM      29.98F
$$

TNZ061-075-076-078-094-096-097-220500-
SOUTH MIDDLE TENNESSEE

CITY           SKY/WX    TMP DP  RH WIND       PRES   REMARKS
FAYETTEVILLE   CLOUDY    57  55  94 SE8       29.93S
TULLAHOMA      CLOUDY    57  54  88 SE6       29.95R
WINCHESTER     CLOUDY    57  54  88 SE9       29.95R
MCMINNVILLE    CLEAR     59  55  88 CALM      29.94F
COLUMBIA       CLOUDY   N/A N/A N/A CALM      29.92S
SHELBYVILLE    CLOUDY    59  55  88 S3        29.94S
$$

TNZ017-018-042-046-047-220500-
NORTHEAST TENNESSEE

CITY           SKY/WX    TMP DP  RH WIND       PRES   REMARKS
TRI CITIES     CLOUDY    58  45  62 E3        30.03F
ELIZABETHTON   CLOUDY    59  45  58 E9        30.04F
$$

TNZ012-013-036-069-073-074-220500-
CENTRAL EAST TENNESSEE

CITY           SKY/WX    TMP DP  RH WIND       PRES   REMARKS
KNOXVILLE      CLOUDY    60  49  66 CALM      29.97F
OAK RIDGE      CLOUDY    59  52  77 CALM      29.99F
GATLINBURG     CLOUDY    55  46  71 CALM      29.97F
MORRISTOWN     CLOUDY    61  48  63 E5        29.98F
JACKSBORO      CLOUDY    55  55 100 CALM      30.01F FOG
$$

TNZ083-085-099-220500-
SOUTHEAST TENNESSEE

CITY           SKY/WX    TMP DP  RH WIND       PRES   REMARKS
CHATTANOOGA    LGT RAIN  57  56  96 CALM      29.97F FOG
$$

SKY/WX REPORTED AS FAIR MEANS FEW OR NO CLOUDS BELOW
12 THOUSAND FEET.





USA.gov is the U.S. government's official web portal to all federal, state and local government web resources and services.